This demonstration page uses our WeatherBlox Daily Observations layout. Learn more.

Left ArrowRight Arrow

34.16533, -84.80231

Hourly Observations for July 16, 2020

Temp ( °F °C ) Dew Point ( °F °C ) Humidity (%) Winds ( mph kmh ) Pressure ( in mb ) Visibility ( mi km ) Precip ( " mm )
12:53 am 00:53 Clear 75 23.9 69 20.6 82 82 Calm 30.06 1018 10 16 0.00 0.00
1:53 am 01:53 Clear 75 23.9 70 21.1 84 84 Calm 30.06 1018 10 16 0.00 0.00
2:53 am 02:53 Clear 73 22.8 69 20.6 87 87 Calm 30.04 1017 10 16 0.00 0.00
3:53 am 03:53 Clear 74 23.3 70 21.1 88 88 Calm 30.05 1018 10 16 0.00 0.00
4:53 am 04:53 Clear 73 22.8 69 20.6 87 87 Calm 30.06 1018 10 16 0.00 0.00
5:53 am 05:53 Clear 72 22.2 69 20.6 91 91 Calm 30.07 1018 10 16 0.00 0.00
6:53 am 06:53 Sunny 71 21.7 68 20 90 90 Calm 30.08 1019 7 11 0.00 0.00
7:53 am 07:53 Sunny 76 24.4 71 21.7 85 85 Calm 30.09 1019 9 14 0.00 0.00
8:53 am 08:53 Sunny 80 26.7 72 22.2 76 76 Calm 30.11 1020 10 16 0.00 0.00
9:53 am 09:53 Sunny 84 28.9 70 21.1 63 63 Calm 30.12 1020 10 16 0.00 0.00
10:53 am 10:53 Mostly Sunny 87 30.6 69 20.6 55 55 VRB 3 6 30.14 1021 10 16 0.00 0.00
11:53 am 11:53 Mostly Cloudy 90 32.2 71 21.7 54 54 NNE 5 7 30.15 1021 10 16 0.00 0.00
12:53 pm 12:53 Sunny 90 32.2 70 21.1 52 52 VRB 7 11 30.14 1021 10 16 0.00 0.00
1:53 pm 13:53 Sunny 92 33.3 69 20.6 47 47 S 8 13 30.12 1020 10 16 0.00 0.00
2:53 pm 14:53 Sunny 93 33.9 70 21.1 47 47 S 8 13 30.10 1019 10 16 0.00 0.00
3:53 pm 15:53 Sunny 94 34.4 69 20.6 44 44 VRB 7 11 30.09 1019 10 16 0.00 0.00
4:53 pm 16:53 Sunny 94 34.4 68 20 43 43 S 5 7 30.07 1018 10 16 0.00 0.00
5:53 pm 17:53 Sunny 94 34.4 67 19.4 41 41 SSE 7 11 30.07 1018 10 16 0.00 0.00
6:53 pm 18:53 Sunny 93 33.9 69 20.6 46 46 VRB 5 7 30.07 1018 10 16 0.00 0.00
7:53 pm 19:53 Sunny 90 32.2 71 21.7 54 54 SSW 3 6 30.08 1019 10 16 0.00 0.00
8:53 pm 20:53 Clear 87 30.6 71 21.7 59 59 Calm 30.10 1019 10 16 0.00 0.00
9:53 pm 21:53 Clear 82 27.8 72 22.2 72 72 Calm 30.11 1020 10 16 0.00 0.00
10:53 pm 22:53 Clear 81 27.2 72 22.2 74 74 Calm 30.11 1020 10 16 0.00 0.00
11:53 pm 23:53 Clear 79 26.1 72 22.2 79 79 Calm 30.11 1020 10 16 0.00 0.00

Powered by AerisWeather